Location: Unspecified
(0.0000°N, 0.0000°E)
Time: 04:48:03
(UTC+00:00)

A-11 Canister half - Pass Details

Date: 18 April 2026
Orbit: 1523 x 1685 km, 47.3° (Epoch: 13 May)

Event Time Altitude Azimuth Distance (km) Brightness Sun altitude
Rises 23:10:49 0° 258° (WSW) 4,800 - -73.6°
Reaches altitude 10° 23:15:23 10° 276° (W) 3,843 - -74.4°
Maximum altitude 23:21:18 17° 314° (NW) 3,314 - -75.4°
Drops below altitude 10° 23:27:20 10° 352° (N) 3,906 - -76.4°
Sets 23:32:07 0° 11° (N) 4,910 - -77.0°
